Regional Weather Roundup
Issued by NWS Newport/Morehead, NC

Current Version | Previous Version | Graphics & Text | Print | Product List | Glossary Off
Versions: 1 2 3 4 5 6 7 8 9 10 11 12 13 14 15 16 17 18 19 20 21 22 23 24 25 26 27 28 29 30 31 32 33 34 35 36 37 38 39 40 41 42 43 44 45 46 47 48 49 50

000
ASUS42 KMHX 072212
RWRMHX
WEATHER ROUNDUP FOR EASTERN NORTH CAROLINA
NATIONAL WEATHER SERVICE NEWPORT/MOREHEAD CITY NC
500 PM EST WED DEC 07 2016

NOTE: "FAIR" INDICATES FEW OR NO CLOUDS BELOW 12,000 FEET
WITH NO SIGNIFICANT WEATHER AND/OR OBSTRUCTIONS TO VISIBILITY

NCZ015>017-031-032-045>047-102-103-072300-
NORTH COAST

CITY           SKY/WX    TMP DP  RH WIND       PRES   REMARKS
EDENTON        CLEAR     54  45  73 CALM      30.06R
ELIZABETH CITY CLEAR     50  41  71 NE7       30.06R
KITTY HAWK     PTCLDY    50  46  86 CALM      30.05R
MANTEO         CLEAR     49  44  80 NE13      30.06R

$$

NCZ045>047-081-094-103-104-072300-
CENTRAL COAST

CITY           SKY/WX    TMP DP  RH WIND       PRES   REMARKS
FRISCO         NOT AVBL

$$

NCZ095-097-098-100-101-072300-
SOUTHERN COAST

CITY           SKY/WX    TMP DP  RH WIND       PRES   REMARKS
BEAUFORT       CLEAR     55  46  71 NE3       30.05R
CEDAR ISLAND   NOT AVBL
JACKSONVILLE   CLEAR     57  45  64 NE3       30.04R
PINEY ISLAND   CLEAR    N/A N/A N/A NE5       30.05R
WILMINGTON     CLEAR     56  48  74 SE7       30.04R


$$

NCZ011>013-027>030-043-044-078>080-089-090>093-098-072300-
COASTAL PLAIN

CITY           SKY/WX    TMP DP  RH WIND       PRES   REMARKS
AHOSKIE        CLEAR     50  44  78 CALM      30.06R
CLINTON        CLEAR     56  47  72 CALM      30.05R
ELIZABETHTOWN  CLEAR     59  46  62 CALM      30.04S
GOLDSBORO      CLEAR     54  47  77 CALM      30.03R
GREENVILLE     CLEAR     52  43  71 N3        30.07R
HAVELOCK       PTCLDY    54  45  71 CALM      30.05R
KENANSVILLE    NOT AVBL
KINSTON        CLEAR     52  45  76 CALM      30.06R
NEW BERN       CLEAR     52  45  77 CALM      30.05R
RICHLANDS      CLEAR     54  48  80 CALM      30.05R
ROCKY MOUNT    CLEAR     51  47  86 CALM      30.04S
WASHINGTON     CLEAR     53  42  66 CALM      30.05R
WHITEVILLE     CLEAR     60  45  57 CALM      30.03S

$$

AMZ130-135-150-152-154-156-158-170-250-252-270-ANZ085-086-088-633-658-670-072300-
MARINE OBSERVATIONS

STATION/POSITION TIME  TEMP    WIND        PRES    WAVE   SWELL
                       AIR SEA DIR/SP/G            HT/PER HT/PER
                 (UTC) (F)     (DEG/KT/KT) (MB)    (FT/S) (FT/S)
CHESAPEAKE LIGHT NOT AVBL
64 E VA BEACH    2150   52 59  340/ 14/ 17 1016.8    7/10   7/10
DUCK             2136   51 54   10/ 13/ 15 1016.9
2 E DUCK         NOT AVBL
OREGON INLET     2136   51 55  340/  7/ 14 1017.5
13E OREGON INLT  NOT AVBL
HATTERAS CG      2136   53 59   30/  7/ 12 1017.0
DIAMOND BUOY     2150   57 76   10/ 12/ 17 1017.3    6/11   7/11
CAPE LOOKOUT     2200   54      50/  5/  6 1017.4
BEAUFORT LAB     2136   56 55   20/  4/  5 1016.3
30 SE NEW RVR IN 2108   56 71   40/  6/  8 1017.4
30 SE NEW RVR IN NOT AVBL
27 SE WRIGHTSVLE 2108   58 68   50/  6/ 10 1017.1
5 SE WRIGHTSVLE  NOT AVBL
225 S CAPE HAT   2150   70 74  340/ 10/ 12 1016.4    6/ 7   5/ 7
41 SE CHARLESTON 2150   62 74   10/  2/  4 1017.0    2/ 7   2/ 7

$$




USA.gov is the U.S. government's official web portal to all federal, state and local government web resources and services.